Погода в Крутом

Россия / Липецкая область     53°01′04″N   39°48′56″E
темп.,
°C
ветер,
м/с
пор.,
м/с
влажн.,
%
обл.,
%
осадки,
мм/ч
давл.,
гПа
погр.,
м
24 сентября, пт
пт2400:00+7юз2388100 0.0 101148
03:00+6ююз239171 0.0 101158
06:00+8ююв378796 0.0 1009276
09:00+8ю4987100 0.2 1010609
12:00+12ю586498 0.1 10081157
15:00+12ю476081 0.3 1007963
18:00+11ю495987 0.0 1007498
21:00+10ююв386498 0.0 1007334
25 сентября, сб
сб2500:00+8ююв3574100 0.0 1007106
03:00+7ю2278100 0.0 100724
06:00+6юв227997 0.0 100841
09:00+10ююв3570100 0.0 1009370
12:00+11ююз3568100 0.0 1009567
15:00+11ююз3467100 0.0 1010740
18:00+10ю237693 0.0 101081
21:00+10ююз3680100 0.0 1010177
26 сентября, вс
вс2600:00+9ююз378692 0.1 1009191
03:00+9ююз3881100 0.1 1008297
06:00+9ююз4996100 3.4 1006483
09:00+10зюз4895100 5.2 1005495
12:00+11сз6987100 1.6 1005792
15:00+10сз71184100 2.6 1007953
18:00+8сз71389100 0.2 1007950
21:00+8ссз61193100 0.4 1008665
27 сентября, пн
пн2700:00+9с51094100 0.2 1009691
03:00+9с51094100 0.6 1012510
06:00+9с61294100 0.1 1015565
09:00+10ссв6118570 0.1 1017651
12:00+13с686494 0.0 10181296
15:00+12с5767100 0.1 10201154
18:00+9с5886100 0.1 1022618
21:00+9с4890100 0.3 1022554
28 сентября, вт
вт2800:00+8ссв3791100 0.0 1023429
03:00+8ссв4790100 0.1 1025446
06:00+7ссв4791100 0.0 1026430
09:00+8ссв4689100 0.0 1027551
12:00+9св4585100 0.1 1029622
15:00+9св3487100 0.1 1029505
18:00+8ссв3591100 0.1 1030281
21:00+8св3692100 0.1 1031291